sat.trackr.live / text

‹ back to catalog

KINEIS-2C

NORAD 62929 · 2025-028B

PAYLOAD ACTIVE UNKNOWN

§ Identity

Operator
Country
FR
Launch date
2025-02-08
Launch site
RLLB
Launch vehicle
Mass (kg)
RCS (m²)

External: N2YO · Heavens-Above · Gunter

§ Orbital elements

Epoch: 2026-09-22T16:48:23.958720Z

Period
97.72 min
Inclination
98.1148°
Eccentricity
0.0002828
Mean motion
14.73578542 rev/d
Perigee alt
647.7 km
Apogee alt
651.7 km
Semi-major
7,027.8 km
B*
1.3158e-4
RAAN
320.1666°
Arg perigee
336.4278°
Mean anomaly
23.6800°
Rev number
8,697

§ Raw data

KINEIS-2C1 62929U 25028B   26265.70027730  .00000805  00000+0  13158-3 0  99952 62929  98.1148 320.1666 0002828 336.4278  23.6800 14.73578542 86973

JSON: /api/v1/satellites/62929 · /tle

For live sub-satellite position, see the globe view (requires WebGL).

§ Visibility from observer

Set your observer location to see the next 7 days of passes ≥ 10°. The values pass through the URL so the page stays shareable.

No JS? Fill the form by hand. The geolocation button needs JavaScript.

§ Radio — SatNOGS DB

ModeDescriptionDownlinkUplink
FM S-band telemetry 2.261 GHz
FM S-band telemetry 2.265 GHz
FM Telemetry 400.645 MHz

3 transmitters · refreshed weekly from db.satnogs.org